Showing default

NUSANTARA TIGA, 57045

Orbit data source: Space-Track

NUSANTARA TIGA, 57045 is a payload satellite owned by SNT (ID) in GEO that was launched on Sun, 18 Jun 2023 UTC via an FALCON 9 launch vehicle from the Air Force Eastern Test Range (AFETR). Payload-class satellites include a variety of spacecraft equipped with specific instruments for various scientific and technological missions. These include communications satellites like Starlink; space stations such as the ISS; scientific satellites like the Hubble; Earth observation satellites from companies like Planet Labs, Umbra, and HawkEye 360; GPS; miniature CubeSats for education and research; and military/defense satellites.

Not visible in the next 10 days
Identifier
57045, 2023-086A
Orbit
GEO
Country
Flag of IDID / INDO
Related business
Manufacturer
Thales Alenia
Mission
Operational Commercial Communications
Bus & Motor
SPACEBUS NEO200, XPS/PPS-5000
Mass
4,600 kg wet, ~4,200 kg dry
Launch date (UTC)
2023-06-18 (3 years ago)
Launch vehicle
FALCON 9
Launch site
Air Force Eastern Test Range (AFETR)
Object type
Payload
Rocket body
Debris
Shape & HBR
Box + 2 Pan, 22.5 m
Radar Cross Section
62.256 m², Large (>1 m²)

Expand to show TLE details & history
Last TLE update: 1 week ago

TLE from 1 week ago
0 NUSANTARA TIGA
1 57045U 23086A   26154.73843727 -.00000223  00000-0  00000-0 0  9997
2 57045   0.0380 341.7960 0003640   3.8036 318.4303  1.00269891  9622
Epoch: 2026-06-03T17:43Z
TLE epoch observation values (Epoch: 2026-06-03T17:43:20.980Z)
Latitude
-0.03601°
Longitude
145.96734°
Altitude
35,775.2 km
Speed
3.076 km/s
True Right ascension
20h 15m 59s
True Declination
0° 02' 10"
Sunlit
Object was in daylight at epoch
Visualization orbit readout
Latitude
Unknown
Longitude
Unknown
Altitude
Unknown
Speed
Unknown
Apparent Right ascension
Unknown
Apparent Declination
Unknown
Sunlit
N/A
Visualization observer readout
Local Sidereal Time
04:26:05
Azimuth
Unknown
Elevation
Unknown
Doppler factor
Unknown
Orbital elements
Apogee altitude
35,803.545 km
Perigee altitude
35,772.848 km
Semi-major axis
42,166.333 km
Eccentricity
0.00036
Inclination
0.038°
RAAN
341.796°
Arg. of periapsis
3.8036°
True anomaly
318.40261°
Mean anomaly
318.4303°
Eccentric anomaly
318.41646°
Mean motion
0.25067 °/min
Orbital period
1,436.18 mins
BSTAR
0
Loading maneuver chart data...
Computing Atmospheric mass density...
Loading historical data...
Loading historical data...
Loading historical data...
Loading historical data...
Loading historical data...
Loading historical data...
Loading historical data...
Other satellites on launch #86 in the year 2023 (2023-06-18 UTC)

Documentation

Showing up to 5 results
|